Simultaneous Nadir Overpasses (SNOs) Predictions

Prediction of SNOs over PacNW region [( 10.00, 139.50) to ( 22.70, 165.60)] between AQUA and NPP Satellites:

Table of predicted SNOs over PacNW region for the next 30.0 days since TLE Epoch: 4/6/2014
Index Date (AQUA) Time (AQUA) AQUA Lat,Lon Date (NPP) Time (NPP) NPP Lat,Lon Distance(km) Time Diff (sec)
1 04/09/2014 02:41:26 16.65, 161.23 04/09/2014 02:39:36 16.34, 159.88 148.48 110
2 04/17/2014 03:28:50 10.17, 150.36 04/17/2014 03:28:48 9.83, 148.69 186.68 2
3 04/25/2014 02:39:33 12.33, 162.34 04/25/2014 02:38:55 11.99, 160.86 165.38 38
4 04/27/2014 16:21:18 10.01, 140.14 04/27/2014 16:17:48 8.46, 139.34 194.49 210
5 05/03/2014 03:27:46 10.10, 150.60 05/03/2014 03:29:14 9.66, 148.70 214.38 88
